Location: Asheville, NC
(35.6000°N, 82.5500°W)
Time: 22:53:39
(UTC-04:00)

Vanguard 1 Rocket - Pass Details

Date: 13 December 2017
Orbit: 652 x 4225 km, 34.3° (Epoch: 27 May)

Event Time Altitude Azimuth Distance (km) Brightness Sun altitude
Rises 01:57:20 0° 283° (WNW) 7,863 - -66.3°
Reaches altitude 10° 02:04:14 10° 272° (W) 7,179 - -65.1°
Maximum altitude 02:21:30 24° 229° (SW) 6,240 - -61.8°
Exits shadow 02:36:58 12° 187° (S) 6,628 11.6 -58.8°
Drops below altitude 10° 02:38:01 10° 185° (S) 6,698 11.6 -58.5°
Sets 02:44:23 0° 172° (S) 7,231 12.0 -57.3°
